Starlink 3663

operational
NORAD ID: 51976 Int'l Des: 2022-025 Owner: SPXS Country: US Constellation: starlink
LEOCIRCULAR

Starlink 3663について

説明を読み込み中...

リアルタイム位置

3D地球を読み込み中...

次回通過

高度履歴

Altitude vs Time

uPlot chart will show altitude changes over time

軌道要素

1 51976U 22025W 25305.66668981 .00211938 00000-0 10841-2 0 9994
2 51976 53.2065 172.6040 0006862 153.8364 250.2108 15.80175575 5987
Epoch: Nov 1, 2025 • Age: 22 hours

現在のステータス

高度 327.0 km
速度 7.72 km/s
衛星直下点 -6.73°S, 103.14°E
打ち上げ日 Mar 9, 2022
運用期間 3.6 years
タイプ internet

技術仕様

分類 Payload
質量 297.00 kg
乾燥質量 275.00 kg
総質量 297.00 kg
長さ 0.20 m
直径 2.80 m
スパン 9.00 m
形状 Box + pan
製造者 SPXS
バスタイプ Starlink
フェーズステータス In Orbit
所有者/国 SPXS/US

大規模コンステレーション

Loading constellations...